SB KEPS @ AMSAT $ORB07032.N 2Line Orbital Elements 07032.AMSAT
HR AMSAT ORBITAL ELEMENTS FOR AMATEUR SATELLITES IN NASA FORMAT FROM WA5QGD FORT WORTH,TX February 1, 2007 Send SUBSCRIBE KEPS/UNSUBSCRIBE KEPS to majordomo@amsat.org only BID: ORB07032.N
DECODE 2-LINE ELSETS WITH THE FOLLOWING KEY: 1 AAAAAU 00 0 0 BBBBB.BBBBBBBB .CCCCCCCC 00000-0 00000-0 0 DDDZ 2 AAAAA EEE.EEEE FFF.FFFF GGGGGGG HHH.HHHH III.IIII JJ.JJJJJJJJKKKKKZ KEY: A-CATALOGNUM B-EPOCHTIME C-DECAY D-ELSETNUM E-INCLINATION F-RAAN G-ECCENTRICITY H-ARGPERIGEE I-MNANOM J-MNMOTION K-ORBITNUM Z-CHECKSUM
TO ALL RADIO AMATEURS BT
AO-07 1 07530U 74089B 07031.59266877 -.00000028 00000-0 10000-3 0 07953 2 07530 101.5373 073.5228 0012083 161.7372 198.4137 12.53572426474000 AO-10 1 14129U 83058B 07029.62966902 .00000006 00000-0 10000-3 0 03544 2 14129 026.9722 294.1091 6051069 353.7872 001.2816 02.05868358177711 UO-11 1 14781U 84021B 07032.59353408 -.00000098 00000-0 -57045-5 0 2904 2 14781 098.1998 052.6046 0008135 247.3915 112.6411 14.79516465229689 RS-10/11 1 18129U 87054A 07031.90079437 .00000051 00000-0 38839-4 0 02214 2 18129 082.9270 158.9892 0011535 170.6018 189.5354 13.72783992982534 RS-15 1 23439U 94085A 07031.92951533 -.00000039 00000-0 10597-3 0 00118 2 23439 064.8136 227.2769 0162954 214.6839 144.3372 11.27551724498332 FO-29 1 24278U 96046B 07032.87046029 .00000030 00000-0 63408-4 0 4247 2 24278 098.5312 010.8054 0351436 074.0466 289.9087 13.52927955516609 SO-33 1 25509U 98061B 07031.88665791 .00000245 00000-0 35997-4 0 8533 2 25509 031.4339 276.3642 0355673 315.7236 041.5444 14.28145688431751 AO-40 1 26609U 00072B 07032.19384119 -.00000047 00000-0 10000-3 0 8344 2 26609 004.8407 179.1316 7998999 267.0800 009.9290 01.25586120 28738 VO-52 1 28650U 05017B 07032.60409166 .00000047 00000-0 12758-4 0 5442 2 28650 097.8474 106.2726 0027066 337.6433 022.3574 14.81258253 94348 AO-16 1 20439U 90005D 07031.53586290 .00000022 00000-0 23573-4 0 09562 2 20439 098.1906 033.6599 0010016 233.2748 126.7524 14.31748892888991 LO-19 1 20442U 90005G 07031.52739484 .00000013 00000-0 19787-4 0 08853 2 20442 098.1822 043.1426 0011070 231.8269 128.1921 14.31990166889137 AO-27 1 22825U 93061C 07031.47006499 -.00000075 00000-0 -13250-4 0 06073 2 22825 098.3118 007.4379 0007750 311.1164 048.9357 14.29197793695960 IO-26 1 22826U 93061D 07031.89085780 .00000021 00000-0 24321-4 0 03022 2 22826 098.3056 008.9666 0008410 307.9074 052.1351 14.29443660696109 PO-28 1 22829U 93061G 07031.49363791 -.00000011 00000-0 11650-4 0 5812 2 22829 098.2951 009.7723 0008859 279.0420 080.9763 14.30141525696270 GO-32 1 25397U 98043D 07031.55160879 -.00000125 00000-0 -36941-4 0 02206 2 25397 098.4363 084.6114 0000489 305.5963 054.5174 14.23118670444727 MO-46 1 26548U 00057D 07032.65177335 .00000128 00000-0 33797-4 0 7123 2 26548 064.5548 241.9526 0030768 215.2392 144.6697 14.83093121343432 NO-44 1 26931U 01043C 07031.79382524 .00000201 00000-0 11109-3 0 05129 2 26931 067.0524 138.8288 0005539 278.9038 081.1439 14.29472218278603 SO-50 1 27607U 02058C 07031.36119912 -.00000004 00000-0 21133-4 0 02329 2 27607 064.5571 140.4373 0039022 046.3938 314.0415 14.71223577220992 CO-55 1 27844U 03031E 07031.94907818 .00000243 00000-0 13370-3 0 09524 2 27844 098.7200 042.1023 0010534 121.3358 238.8918 14.20489336186139 CO-57 1 27848U 03031J 07030.54347867 -.00000043 00000-0 44159-6 0 9133 2 27848 098.7178 039.9640 0010250 127.8600 232.3504 14.20311111185912 AO-51 1 28375U 04025K 07032.63892264 .00000014 00000-0 17291-4 0 7377 2 28375 098.1333 078.8136 0083086 233.3147 126.0390 14.40553633136190 CO-56 1 28941U 06005C 07032.59119245 .00027592 24594-5 30734-3 0 3384 2 28941 098.1503 079.0485 0247104 031.4464 330.1159 15.34122201 52601 HO-59 1 29484U 06041F 07031.59805921 .00051851 30233-5 41631-3 0 1770 2 29484 098.3087 061.6367 0247683 032.3200 329.3942 15.40488960 19976 NO-60 1 29661U 06055C 07032.53304702 .00067427 00000-0 25905-3 0 548 2 29661 051.6422 082.5555 0011470 169.3858 190.7379 15.86634443 6746 NO-61 1 29667U 06055J 07032.51882337 .00019004 00000-0 84615-4 0 415 2 29667 051.6335 083.1916 0016226 172.0078 188.1719 15.83336117 6475 NOAA-10 1 16969U 86073A 07032.44733456 -.00000047 00000-0 -96659-6 0 5274 2 16969 098.7539 049.4932 0012068 200.0025 160.0696 14.27316131 59866 NOAA-11 1 19531U 88089A 07032.13918625 .00000147 00000-0 99089-4 0 5109 2 19531 098.8166 122.9919 0012423 059.4007 300.8360 14.14834389946913 NOAA-12 1 21263U 91032A 07032.06580876 -.00000002 00000-0 18099-4 0 31 2 21263 098.7470 029.5709 0013425 140.5654 219.6488 14.25521224816857 MET-3/5 1 21655U 91056A 07031.95889449 .00000051 00000-0 10000-3 0 02596 2 21655 082.5560 099.2018 0012949 184.5839 175.5166 13.17010012743471 MET-2/21 1 22782U 93055A 07032.41661069 -.00000091 00000-0 -95261-4 0 7377 2 22782 082.5497 149.6240 0020939 256.4805 103.4025 13.83613087677743 OKEAN-4 1 23317U 94066A 07031.70359516 .00000010 00000-0 -16732-5 0 1749 2 23317 082.5375 063.8654 0021801 346.8391 013.2272 14.82460380663835 NOAA-14 1 23455U 94089A 07032.19116231 -.00000157 00000-0 -58905-4 0 4963 2 23455 099.0092 097.5520 0010146 123.4960 236.7201 14.13694863623428 SICH-1 1 23657U 95046A 07031.71818006 .00000289 00000-0 33821-4 0 9753 2 23657 082.5260 204.7509 0023232 335.3718 024.6392 14.81446828615821 NOAA-15 1 25338U 98030A 07032.12973198 -.00000068 00000-0 -10960-4 0 8583 2 25338 098.5268 032.6803 0011388 068.5226 291.7165 14.24624032453318 RESURS 1 25394U 98043A 07031.76692835 .00000268 00000-0 13453-3 0 5614 2 25394 098.4586 091.5718 0000858 200.8269 159.2875 14.24126957444936 FENGYUN1 1 25730U 99025A 07016.60112448 .00000048 00000-0 29058-4 0 9329 2 25730 098.6469 006.2281 0014921 004.1687 356.0079 14.06556409396135 OKEAN-0 1 25860U 99039A 07031.53006843 .00000048 00000-0 14662-4 0 09682 2 25860 097.7309 040.1704 0001889 085.1162 275.0264 14.73426676405374 NOAA-16 1 26536U 00055A 07032.10660437 .00000238 00000-0 15405-3 0 2625 2 26536 099.1000 006.7938 0010393 192.7871 167.3013 14.12403397327891 NOAA-17 1 27453U 02032A 07032.47392666 .00000008 00000-0 22267-4 0 2795 2 27453 098.5974 104.9470 0012588 127.7263 232.5055 14.23849713239404 NOAA-18 1 28654U 05018A 07032.17972936 .00000469 00000-0 28477-3 0 8253 2 28654 098.8158 335.8450 0013725 295.0014 064.9744 14.11034978 87673 HUBBLE 1 20580U 90037B 07032.29474427 -.00000210 00000-0 00000 0 0 7952 2 20580 028.4697 356.2096 0004100 098.9778 261.1752 15.00182257719537 UARS 1 21701U 91063B 07032.87728509 .00006707 00000-0 12157-3 0 9852 2 21701 056.9758 180.4635 0090560 292.4540 066.6947 15.46553838844806 PO-34 1 25520U 98064B 07031.92462143 .00000651 00000-0 22404-4 0 06695 2 25520 028.4612 300.6902 0005712 210.6133 149.4127 15.16915209456811 ISS 1 25544U 98067A 07033.00579900 .00025711 00000-0 15066-3 0 5626 2 25544 051.6353 082.5807 0022442 157.7988 274.2303 15.77789868469426 OO-38 1 26063U 00004C 07032.49197539 .00000008 00000-0 23166-4 0 8292 2 26063 100.2160 010.1052 0036860 181.1351 178.9745 14.35794616367576 NO-45 1 26932U 01043D 07031.79595325 -.00000010 00000-0 28502-4 0 05254 2 26932 067.0543 138.5668 0003629 278.2912 081.7777 14.29548077278648 UWE-1 1 28892U 05043C 07031.23277781 -.00000005 00000-0 85965-5 0 06675 2 28892 098.1452 290.4865 0017302 176.8800 183.2515 14.59458339067231 CO-58 1 28895U 05043F 07032.65573213 .00000239 00000-0 60064-4 0 6483 2 28895 098.1485 292.0452 0018046 172.4021 187.7481 14.59509663 67321 NCUBE2 1 28897U 05043H 07031.71722818 .00000116 00000-0 34019-4 0 01804 2 28897 098.1484 291.0930 0017462 176.7990 183.3322 14.59667943059463 NMARS 1 29662U 06055D 07032.58989979 .00085946 00000-0 31739-3 0 604 2 29662 051.6401 082.1774 0010930 167.0025 193.1254 15.87356516 6645 FCAL 1 29664U 06055F 07032.51522574 .00028133 00000-0 12281-3 0 430 2 29664 051.6336 083.1671 0015807 169.1453 191.0427 15.83762255 6609 /EX